CW2434 Weather Reports


Display with metric or nautical units.
time (UTC)temp
F
wind
direction
speed
MPH
gust
MPH
rain 1hr
in
rain 24hr
in
rain mn
in
humidity
%
barometer
mb
20260901051609 66 0 0.0 2.0 0.01 0.03 0.01 95 1018.0
20260901050105 66 0 0.0 1.0 0.01 0.03 0.01 95 1017.9
20260901044609 66 0 0.0 2.0 0.00 0.02 0.00 95 1018.1
20260901043100 66 0 0.0 0.0 0.01 0.02 0.00 95 1018.3
20260901041559 66 0 0.0 1.0 0.01 0.02 0.00 94 1018.3
20260901040114 66 0 0.0 0.0 0.01 0.02 0.00 94 1018.3
20260901034609 66 209 0.0 0.0 0.01 0.02 0.02 94 1018.5
20260901033100 66 0 0.0 0.0 0.00 0.01 0.01 94 1018.4
20260901031557 66 0 0.0 3.0 0.00 0.01 0.01 94 1018.4
20260901030104 66 0 0.0 1.0 0.00 0.01 0.01 94 1018.4
20260901024601 66 51 0.0 2.0 0.00 0.02 0.01 94 1018.5
20260901023107 66 0 0.0 1.0 0.00 0.02 0.01 94 1018.7
20260901021557 66 0 0.0 0.0 0.00 0.02 0.01 94 1018.9
20260901020059 66 0 0.0 0.0 0.00 0.02 0.01 94 1018.9
20260901014600 66 0 0.0 0.0 0.00 0.12 0.01 94 1018.7
20260901013057 66 0 0.0 3.0 0.00 0.12 0.01 93 1018.7
20260901011605 66 0 0.0 0.0 0.00 0.12 0.01 93 1018.9
20260901010056 66 0 0.0 3.0 0.00 0.12 0.01 93 1019.0
20260901004608 66 0 0.0 3.0 0.00 0.12 0.01 92 1019.1
20260901003103 66 111 0.0 6.0 0.00 0.12 0.01 91 1018.9
20260901001600 66 0 0.0 4.0 0.00 0.12 0.01 91 1018.9
20260901000056 66 0 0.0 3.0 0.00 0.12 0.01 91 1018.7
20260831234553 66 171 1.0 5.0 0.00 0.12 0.01 91 1018.6
20260831233101 66 0 0.0 0.0 0.00 0.12 0.01 92 1018.7
20260831231602 67 0 0.0 0.0 0.00 0.12 0.01 92 1018.8
20260831230115 67 0 0.0 0.0 0.00 0.12 0.01 92 1019.1
20260831224559 67 0 0.0 0.0 0.00 0.12 0.01 91 1019.2
20260831223058 68 0 0.0 0.0 0.00 0.12 0.01 89 1019.3
20260831221603 69 198 0.0 5.0 0.00 0.12 0.01 86 1019.4
20260831220121 69 0 0.0 5.0 0.00 0.12 0.01 84 1019.4
20260831214601 70 185 0.0 2.0 0.00 0.12 0.01 86 1019.4
20260831213128 70 0 0.0 0.0 0.00 0.12 0.01 87 1019.2
20260831211616 70 0 0.0 0.0 0.00 0.12 0.01 86 1019.2
20260831204600 70 0 0.0 0.0 0.00 0.12 0.01 86 1019.2
20260831203101 71 0 0.0 2.0 0.00 0.12 0.01 84 1019.2
20260831201602 71 263 1.0 3.0 0.00 0.12 0.01 84 1019.2
20260831200100 71 186 1.0 3.0 0.00 0.12 0.01 83 1019.4
20260831194558 71 0 0.0 3.0 0.00 0.12 0.01 82 1019.4
20260831193102 71 0 1.0 4.0 0.00 0.12 0.01 82 1019.5
20260831191601 72 250 2.0 6.0 0.00 0.12 0.01 81 1019.7
20260831190108 72 241 2.0 7.0 0.00 0.12 0.01 78 1019.9
20260831184611 73 267 3.0 7.0 0.00 0.12 0.01 74 1020.0
20260831183059 73 325 4.0 8.0 0.00 0.12 0.01 74 1020.0
20260831181601 72 196 1.0 6.0 0.00 0.12 0.01 78 1020.0
20260831180100 72 0 0.0 5.0 0.00 0.12 0.01 76 1020.1
20260831174559 71 0 1.0 5.0 0.00 0.12 0.01 78 1020.4
20260831173058 72 0 0.0 3.0 0.00 0.12 0.01 75 1020.7
20260831171604 73 0 1.0 6.0 0.00 0.12 0.01 74 1020.7
20260831170104 73 0 0.0 6.0 0.00 0.12 0.01 73 1020.5
20260831164615 73 97 1.0 4.0 0.00 0.12 0.01 72 1020.4
20260831163055 73 101 2.0 5.0 0.00 0.12 0.01 73 1020.6
20260831161607 72 242 2.0 6.0 0.00 0.12 0.01 75 1020.8
20260831154635 72 219 2.0 6.0 0.00 0.12 0.01 74 1021.0
20260831153107 72 0 1.0 7.0 0.00 0.12 0.01 70 1021.0
20260831151612 72 133 4.0 11.0 0.00 0.12 0.01 72 1021.3
20260831150058 70 0 0.0 5.0 0.00 0.12 0.01 77 1020.9
20260831144608 70 174 2.0 6.0 0.00 0.12 0.01 81 1021.0
20260831143121 70 0 1.0 7.0 0.00 0.12 0.01 78 1021.1
20260831141619 69 36 0.0 4.0 0.00 0.12 0.01 82 1020.9
20260831140059 69 55 1.0 4.0 0.00 0.12 0.01 84 1020.9
20260831134559 68 0 0.0 4.0 0.00 0.12 0.01 83 1020.9
20260831133110 68 16 2.0 7.0 0.00 0.12 0.01 83 1020.9
20260831131603 68 0 1.0 8.0 0.00 0.12 0.01 85 1020.9
20260831130101 67 360 2.0 9.0 0.00 0.12 0.01 86 1021.0
20260831124601 66 36 2.0 8.0 0.00 0.12 0.01 90 1021.0
20260831123102 65 360 0.0 8.0 0.00 0.12 0.01 92 1021.1
20260831121558 64 0 0.0 5.0 0.00 0.12 0.01 93 1021.1
20260831120110 63 0 0.0 1.0 0.00 0.12 0.01 95 1020.8
20260831114610 62 0 0.0 0.0 0.00 0.12 0.01 95 1020.9
20260831113102 62 0 0.0 0.0 0.00 0.12 0.01 95 1020.8
20260831111608 62 0 0.0 0.0 0.00 0.12 0.01 94 1020.5
20260831110059 62 0 0.0 0.0 0.00 0.12 0.01 95 1020.4
20260831104558 62 0 0.0 0.0 0.00 0.12 0.01 95 1020.2
20260831103100 61 0 0.0 0.0 0.00 0.12 0.01 95 1020.1
20260831101601 61 0 0.0 0.0 0.00 0.12 0.01 94 1019.8
20260831100104 61 0 0.0 0.0 0.00 0.12 0.01 94 1019.9
20260831094603 62 0 0.0 0.0 0.00 0.12 0.01 94 1020.0
20260831093104 62 0 0.0 0.0 0.00 0.12 0.01 94 1020.0
20260831091607 62 0 0.0 0.0 0.00 0.12 0.01 94 1020.0
20260831090104 62 0 0.0 0.0 0.00 0.12 0.01 93 1020.0
20260831084611 62 0 0.0 0.0 0.00 0.12 0.01 93 1020.0
20260831083111 62 0 0.0 0.0 0.00 0.12 0.01 93 1019.7
20260831081608 62 0 0.0 0.0 0.00 0.12 0.01 92 1019.9
20260831080103 63 0 0.0 0.0 0.00 0.12 0.01 92 1019.9
20260831074616 63 0 0.0 0.0 0.00 0.12 0.01 92 1019.6
20260831073107 63 0 0.0 4.0 0.00 0.12 0.01 92 1019.5
20260831071559 63 0 0.0 2.0 0.00 0.12 0.01 92 1019.6
20260831070106 63 0 0.0 9.0 0.00 0.12 0.01 92 1019.4
20260831064607 63 0 0.0 3.0 0.00 0.12 0.01 92 1019.5
20260831063104 63 0 0.0 2.0 0.00 0.12 0.01 92 1019.3
20260831061602 63 0 0.0 4.0 0.00 0.12 0.01 93 1019.2
20260831060105 63 0 0.0 3.0 0.01 0.12 0.01 93 1019.0
20260831054605 63 0 0.0 0.0 0.01 0.12 0.01 93 1019.3
20260831053113 64 0 0.0 5.0 0.01 0.12 0.01 93 1019.4